FW0880 Weather Reports


Display with metric or nautical units.
time (UTC)temp
F
wind
direction
speed
MPH
gust
MPH
rain 1hr
in
rain 24hr
in
rain mn
in
humidity
%
barometer
mb
20191021010509 77 83 0.0 1.0 0.02 0.75 0.08 100 1005.5
20191021010031 77 83 0.0 1.0 0.02 0.75 0.08 100 1005.4
20191021005520 77 83 0.0 1.0 0.02 0.76 0.08 100 1005.4
20191021005019 77 83 0.0 1.0 0.02 0.76 0.08 100 1005.4
20191021004519 77 83 0.0 1.0 0.02 0.76 0.08 100 1005.4
20191021004010 77 83 0.0 2.0 0.02 0.75 0.07 100 1005.3
20191021003505 77 83 0.0 4.0 0.02 0.75 0.07 100 1005.2
20191021003039 78 83 0.0 4.0 0.02 0.75 0.07 99 1005.2
20191021002521 78 71 1.0 3.0 0.02 0.75 0.07 99 1005.1
20191021002026 78 34 0.0 3.0 0.01 0.74 0.06 99 1005.0
20191021001544 78 32 1.0 3.0 0.01 0.74 0.06 98 1005.0
20191021001003 79 234 0.0 3.0 0.01 0.74 0.06 98 1005.0
20191021000506 79 240 0.0 3.0 0.01 0.74 0.06 98 1005.0
20191021000022 79 210 2.0 3.0 0.01 0.74 0.06 98 1005.0
20191020235510 79 241 1.0 3.0 0.00 1.02 0.06 98 1005.0
20191020235019 79 207 1.0 3.0 0.00 1.02 0.06 98 1004.9
20191020234618 79 204 1.0 3.0 0.00 1.02 0.06 98 1004.9
20191020234021 79 204 0.0 2.0 0.01 1.02 0.06 98 1004.8
20191020233521 79 204 0.0 1.0 0.01 1.02 0.06 98 1004.8
20191020233014 79 204 0.0 2.0 0.01 1.02 0.06 98 1004.8
20191020232506 79 198 0.0 2.0 0.01 1.02 0.06 97 1004.7
20191020232017 79 198 0.0 4.0 0.01 1.02 0.06 97 1004.8
20191020231541 79 198 1.0 4.0 0.01 1.02 0.06 97 1004.7
20191020231006 79 186 2.0 4.0 0.01 1.02 0.06 97 1004.7
20191020230502 79 200 2.0 4.0 0.01 1.02 0.06 97 1004.6
20191020230011 79 219 2.0 4.0 0.01 1.02 0.06 96 1004.7
20191020225514 79 250 2.0 7.0 0.01 1.02 0.06 96 1004.6
20191020225020 79 229 2.0 7.0 0.01 1.02 0.06 96 1004.5
20191020224546 79 219 3.0 5.0 0.01 1.02 0.06 96 1004.5
20191020224009 79 249 3.0 5.0 0.00 1.02 0.05 96 1004.5
20191020223509 79 253 3.0 5.0 0.00 1.02 0.05 96 1004.5
20191020223114 79 233 2.0 5.0 0.00 1.02 0.05 96 1004.4
20191020222512 79 186 3.0 5.0 0.00 1.02 0.05 96 1004.4
20191020222003 79 248 2.0 6.0 0.01 1.02 0.05 96 1004.5
20191020221503 79 208 3.0 6.0 0.01 1.02 0.05 95 1004.4
20191020221008 79 234 3.0 6.0 0.01 1.02 0.05 95 1004.5
20191020220508 79 196 2.0 7.0 0.01 1.02 0.05 95 1004.5
20191020220105 79 233 4.0 7.0 0.01 1.02 0.05 94 1004.5
20191020215518 79 196 2.0 6.0 0.01 1.02 0.05 94 1004.5
20191020215007 79 163 3.0 7.0 0.01 1.02 0.05 94 1004.5
20191020214520 79 200 4.0 8.0 0.01 1.02 0.05 95 1004.4
20191020214013 79 166 4.0 7.0 0.01 1.02 0.05 95 1004.4
20191020213513 79 208 3.0 7.0 0.01 1.02 0.05 95 1004.5
20191020213030 79 211 4.0 6.0 0.01 1.02 0.05 95 1004.5
20191020212518 79 262 3.0 7.0 0.01 1.02 0.05 94 1004.6
20191020212008 80 197 4.0 7.0 0.00 1.01 0.04 93 1004.6
20191020211508 80 234 2.0 5.0 0.00 1.01 0.04 93 1004.6
20191020211016 80 212 2.0 5.0 0.00 1.01 0.04 93 1004.6
20191020210511 80 223 2.0 5.0 0.00 1.01 0.04 93 1004.6
20191020210030 80 242 2.0 5.0 0.00 1.01 0.04 93 1004.6
20191020205519 80 182 3.0 5.0 0.00 1.01 0.04 93 1004.7
20191020205007 80 201 2.0 5.0 0.00 1.01 0.04 92 1004.7
20191020204505 80 205 2.0 5.0 0.00 1.01 0.04 92 1004.7
20191020204015 80 195 3.0 5.0 0.00 1.01 0.04 92 1004.7
20191020203512 80 221 3.0 5.0 0.00 1.01 0.04 91 1004.8
20191020203055 80 211 2.0 6.0 0.00 1.01 0.04 92 1004.8
20191020202518 81 205 3.0 6.0 0.00 1.01 0.04 91 1004.7
20191020202010 81 247 1.0 6.0 0.00 1.01 0.04 91 1004.6
20191020201535 81 243 1.0 4.0 0.00 1.01 0.04 90 1004.7
20191020201017 81 209 2.0 6.0 0.00 1.01 0.04 91 1004.8
20191020200513 81 212 3.0 6.0 0.00 1.01 0.04 91 1004.9
20191020200034 81 204 2.0 5.0 0.00 1.01 0.04 91 1004.9
20191020195521 81 185 2.0 7.0 0.00 1.01 0.04 91 1004.9
20191020195014 81 225 4.0 7.0 0.00 1.01 0.04 90 1005.0
20191020194542 81 173 3.0 7.0 0.00 1.01 0.04 90 1005.0
20191020194019 81 198 4.0 7.0 0.00 1.01 0.04 90 1005.1
20191020193517 81 219 4.0 8.0 0.00 1.01 0.04 90 1005.1
20191020193007 81 244 3.0 6.0 0.00 1.01 0.04 91 1005.2
20191020192506 81 230 3.0 7.0 0.00 1.01 0.04 90 1005.2
20191020192013 81 204 4.0 7.0 0.00 1.01 0.04 90 1005.4
20191020191530 81 184 3.0 7.0 0.00 1.01 0.04 91 1005.5
20191020191019 81 210 4.0 7.0 0.00 1.01 0.04 90 1005.6
20191020190519 82 192 3.0 7.0 0.00 1.01 0.04 90 1005.7
20191020190020 82 234 3.0 7.0 0.00 1.01 0.04 90 1005.8
20191020185507 82 201 4.0 7.0 0.00 1.01 0.04 90 1005.8
20191020185021 81 200 4.0 8.0 0.00 1.01 0.04 91 1006.0
20191020184521 81 215 3.0 7.0 0.00 1.01 0.04 92 1006.0
20191020184008 81 230 4.0 7.0 0.00 1.01 0.04 92 1006.1
20191020183504 81 231 4.0 7.0 0.00 1.01 0.04 92 1006.3
20191020183010 81 252 3.0 7.0 0.00 1.01 0.04 93 1006.4
20191020182514 81 247 3.0 7.0 0.00 1.01 0.04 93 1006.4
20191020182015 81 265 3.0 7.0 0.00 1.01 0.04 93 1006.5
20191020181640 81 233 2.0 7.0 0.00 1.01 0.04 94 1006.6
20191020181008 81 165 3.0 6.0 0.00 1.01 0.04 94 1006.6
20191020180507 80 259 2.0 5.0 0.00 1.01 0.04 94 1006.6
20191020180035 80 239 2.0 5.0 0.00 1.01 0.04 94 1006.7
20191020175513 80 227 2.0 5.0 0.00 1.01 0.04 94 1006.8
20191020175024 80 221 2.0 6.0 0.00 1.01 0.04 94 1006.8
20191020174607 80 205 3.0 6.0 0.00 1.01 0.04 94 1006.8
20191020174009 80 184 3.0 6.0 0.00 1.01 0.04 94 1006.8
20191020173513 80 217 3.0 5.0 0.00 1.01 0.04 93 1006.9
20191020173034 81 232 1.0 4.0 0.00 1.01 0.04 93 1006.9
20191020172524 81 224 2.0 5.0 0.00 1.01 0.04 94 1006.8
20191020172021 80 244 1.0 5.0 0.00 1.01 0.04 94 1006.8
20191020171542 80 286 1.0 4.0 0.00 1.01 0.04 94 1006.8
20191020171017 80 311 1.0 4.0 0.00 1.01 0.04 95 1006.8
20191020170509 80 254 2.0 4.0 0.00 1.01 0.04 94 1006.8
20191020170136 80 261 1.0 4.0 0.00 1.01 0.04 95 1006.8
20191020165515 80 240 1.0 3.0 0.00 1.01 0.04 94 1006.8
20191020165025 80 253 1.0 4.0 0.00 1.01 0.04 95 1006.8
20191020164610 80 197 2.0 6.0 0.00 1.01 0.04 94 1006.8
20191020164013 79 241 3.0 5.0 0.00 1.01 0.04 94 1006.8
20191020163519 80 233 3.0 5.0 0.00 1.01 0.04 95 1006.9
20191020163040 80 182 1.0 5.0 0.00 1.01 0.04 95 1006.8
20191020162517 79 173 2.0 5.0 0.00 1.01 0.04 95 1006.9
20191020162007 79 194 1.0 2.0 0.00 1.01 0.04 96 1006.8
20191020161504 79 194 0.0 2.0 0.00 1.01 0.04 97 1006.8
20191020161014 79 321 0.0 2.0 0.00 1.01 0.04 97 1006.8
20191020160513 79 321 0.0 2.0 0.00 1.01 0.04 98 1006.8
20191020160055 79 321 0.0 2.0 0.00 1.01 0.04 98 1006.9
20191020155522 79 315 1.0 3.0 0.00 1.01 0.04 98 1006.8
20191020155008 79 355 1.0 3.0 0.00 1.01 0.04 99 1006.8
20191020154521 78 355 0.0 2.0 0.00 1.01 0.04 99 1006.7
20191020154019 78 355 0.0 2.0 0.00 1.01 0.04 99 1006.7
20191020153525 78 342 0.0 1.0 0.00 1.01 0.04 99 1006.7
20191020153007 78 342 0.0 1.0 0.00 1.01 0.04 100 1006.7
20191020152503 78 342 0.0 1.0 0.00 1.01 0.04 100 1006.6
20191020152010 78 342 0.0 1.0 0.00 1.01 0.04 100 1006.5
20191020151515 77 342 0.0 1.0 0.00 1.01 0.04 100 1006.4
20191020151020 78 342 0.0 2.0 0.00 1.01 0.04 100 1006.3
20191020150519 77 342 0.0 2.0 0.00 1.01 0.04 100 1006.3
20191020150046 77 342 0.0 2.0 0.00 1.01 0.04 100 1006.3
20191020145507 77 342 0.0 2.0 0.00 1.01 0.04 100 1006.3
20191020145013 77 342 0.0 3.0 0.00 1.01 0.04 100 1006.2
20191020144636 77 339 1.0 3.0 0.00 1.01 0.04 100 1006.2
20191020144027 77 20 0.0 2.0 0.00 1.01 0.04 100 1006.2
20191020143523 77 24 0.0 2.0 0.00 1.01 0.04 100 1006.1
20191020143044 77 29 0.0 2.0 0.00 1.01 0.04 100 1006.0
20191020142522 77 29 0.0 2.0 0.00 1.01 0.04 100 1005.9
20191020142008 76 23 0.0 2.0 0.00 1.01 0.04 100 1005.9
20191020141511 77 19 0.0 1.0 0.00 1.01 0.04 100 1005.9
20191020141023 77 19 0.0 2.0 0.00 1.01 0.04 100 1005.8
20191020140518 77 19 0.0 1.0 0.00 1.01 0.04 100 1005.9
20191020140111 76 19 0.0 1.0 0.00 1.01 0.04 100 1005.9
20191020135524 76 5 0.0 1.0 0.00 1.01 0.04 100 1005.9
20191020135011 76 355 0.0 2.0 0.00 1.01 0.04 100 1005.9
20191020134507 76 355 0.0 3.0 0.00 1.01 0.04 100 1005.9
20191020134015 76 355 1.0 3.0 0.00 1.01 0.04 100 1005.7
20191020133516 76 29 1.0 2.0 0.00 1.01 0.04 100 1005.8
20191020133041 76 26 0.0 2.0 0.00 1.01 0.04 100 1005.7
20191020132520 76 360 0.0 2.0 0.00 1.01 0.04 100 1005.7
20191020132005 76 360 0.0 2.0 0.00 1.01 0.04 100 1005.7
20191020131505 76 360 0.0 2.0 0.00 1.01 0.04 100 1005.6
20191020131011 76 360 0.0 2.0 0.00 1.01 0.04 100 1005.6
20191020130515 76 360 0.0 2.0 0.00 1.01 0.04 100 1005.5
20191020130006 76 360 0.0 2.0 0.00 1.01 0.04 100 1005.5
20191020125508 76 360 0.0 2.0 0.00 1.01 0.04 100 1005.5
20191020125009 76 360 0.0 2.0 0.00 1.01 0.04 100 1005.4
20191020124514 76 360 0.0 2.0 0.00 1.01 0.04 100 1005.4
20191020124019 76 360 0.0 2.0 0.00 1.01 0.04 100 1005.3
20191020123519 76 360 0.0 3.0 0.00 1.01 0.04 100 1005.3
20191020123008 76 360 1.0 3.0 0.00 1.01 0.04 100 1005.1
20191020122505 76 5 1.0 3.0 0.00 1.01 0.04 100 1005.1
20191020122008 76 355 1.0 4.0 0.00 1.01 0.04 100 1005.0
20191020121522 76 355 2.0 4.0 0.00 1.01 0.04 100 1005.0
20191020121014 76 46 0.0 2.0 0.00 1.01 0.04 100 1005.0
20191020120514 76 61 0.0 1.0 0.00 1.01 0.04 100 1005.0
20191020120021 76 61 0.0 1.0 0.00 1.01 0.04 100 1004.9
20191020115509 76 61 0.0 1.0 0.00 1.01 0.04 100 1005.0
20191020115013 76 61 0.0 0.0 0.00 1.01 0.04 100 1004.9
20191020114549 76 61 0.0 0.0 0.00 1.01 0.04 100 1004.9
20191020114018 76 61 0.0 0.0 0.00 1.01 0.04 100 1005.0
20191020113522 76 61 0.0 0.0 0.00 1.01 0.04 100 1004.8
20191020113010 76 61 0.0 1.0 0.00 1.01 0.04 100 1004.8
20191020112514 76 61 0.0 1.0 0.00 1.01 0.04 100 1004.8
20191020112019 76 61 0.0 1.0 0.00 1.01 0.04 100 1004.9
20191020111538 76 51 0.0 2.0 0.00 1.01 0.04 100 1004.9
20191020111028 76 51 0.0 2.0 0.00 1.01 0.04 100 1004.8
20191020110521 76 51 0.0 2.0 0.00 1.01 0.04 100 1004.8
20191020110016 76 51 0.0 3.0 0.00 1.01 0.04 100 1004.8
20191020105510 76 19 1.0 4.0 0.00 1.01 0.04 100 1004.8
20191020105016 76 355 2.0 4.0 0.00 1.01 0.04 100 1004.7
20191020104550 76 340 2.0 4.0 0.00 1.01 0.04 100 1004.7
20191020104026 76 16 1.0 4.0 0.00 1.01 0.04 100 1004.8
20191020103522 76 9 1.0 4.0 0.00 1.01 0.04 100 1004.7
20191020103018 76 5 0.0 4.0 0.00 1.01 0.04 100 1004.6
20191020102512 76 351 2.0 4.0 0.00 1.01 0.04 100 1004.4
20191020102018 76 355 1.0 4.0 0.00 1.01 0.04 100 1004.4
20191020101534 76 360 1.0 4.0 0.00 1.01 0.04 100 1004.4
20191020101005 76 5 1.0 3.0 0.00 1.01 0.04 100 1004.4
20191020100505 76 34 0.0 3.0 0.00 1.01 0.04 100 1004.4
20191020100021 76 34 1.0 3.0 0.00 1.01 0.04 100 1004.5
20191020095520 76 33 1.0 3.0 0.00 1.01 0.04 100 1004.6
20191020095022 76 71 2.0 3.0 0.00 1.01 0.04 100 1004.6
20191020094605 76 48 1.0 3.0 0.00 1.01 0.04 100 1004.6
20191020094003 76 73 0.0 2.0 0.00 1.01 0.04 100 1004.6
20191020093503 76 73 0.0 2.0 0.00 1.01 0.04 100 1004.7
20191020093059 76 42 0.0 2.0 0.00 1.01 0.04 100 1004.7
20191020092514 76 42 1.0 4.0 0.00 1.01 0.04 100 1004.7
20191020092023 76 42 1.0 4.0 0.00 1.01 0.04 100 1004.8
20191020091527 76 5 1.0 5.0 0.00 1.01 0.04 100 1004.8
20191020091008 76 336 2.0 5.0 0.00 1.01 0.04 100 1004.9
20191020090505 76 355 2.0 5.0 0.00 1.01 0.04 100 1005.0
20191020090035 76 5 1.0 3.0 0.00 1.01 0.04 100 1005.0
20191020085513 76 43 0.0 2.0 0.00 1.01 0.04 100 1005.1
20191020085007 76 43 0.0 2.0 0.00 1.01 0.04 100 1005.1
20191020084505 76 43 1.0 2.0 0.00 1.01 0.04 100 1005.1
20191020084009 76 43 0.0 2.0 0.00 1.01 0.04 100 1005.0
20191020083512 76 161 0.0 2.0 0.00 1.01 0.04 100 1005.0
20191020083118 76 161 0.0 1.0 0.00 1.01 0.04 100 1005.0
20191020082520 76 161 0.0 0.0 0.00 1.01 0.04 100 1005.1
20191020082008 76 161 0.0 0.0 0.01 1.01 0.04 100 1005.1
20191020081522 76 161 0.0 1.0 0.01 1.01 0.04 100 1005.1
20191020081017 76 161 0.0 1.0 0.01 1.01 0.04 100 1005.2
20191020080511 76 161 0.0 0.0 0.01 1.01 0.04 100 1005.3
20191020080128 76 161 0.0 0.0 0.01 1.01 0.04 100 1005.3
20191020075518 76 161 0.0 0.0 0.01 1.01 0.04 100 1005.4
20191020075011 76 161 0.0 1.0 0.01 1.01 0.04 100 1005.5
20191020074533 76 161 0.0 2.0 0.01 1.01 0.04 100 1005.6
20191020074017 76 161 0.0 2.0 0.01 1.01 0.04 100 1005.7
20191020073514 76 162 1.0 3.0 0.01 1.01 0.04 100 1005.6
20191020073114 76 159 1.0 6.0 0.01 1.01 0.04 100 1005.6
20191020072520 76 170 1.0 6.0 0.01 1.01 0.04 100 1005.7
20191020072011 76 183 3.0 7.0 0.00 1.00 0.03 100 1005.7
20191020071513 76 175 3.0 7.0 0.00 1.00 0.03 100 1005.8
20191020071016 76 173 4.0 7.0 0.00 1.00 0.03 100 1005.9
20191020070515 76 200 4.0 6.0 0.00 1.00 0.03 100 1005.9
20191020070028 76 175 3.0 5.0 0.00 1.00 0.03 100 1005.9
20191020065508 76 189 2.0 4.0 0.01 1.00 0.03 100 1005.9
20191020065019 76 185 2.0 4.0 0.01 1.00 0.03 100 1005.9
20191020064553 76 209 2.0 4.0 0.02 1.00 0.03 100 1006.0
20191020064027 76 196 1.0 3.0 0.02 1.00 0.03 100 1006.0
20191020063519 76 190 1.0 4.0 0.02 1.00 0.03 100 1006.0
20191020063015 76 200 1.0 3.0 0.02 1.00 0.03 100 1006.1
20191020062508 76 193 1.0 3.0 0.02 1.00 0.03 100 1006.1
20191020062016 76 190 2.0 3.0 0.02 1.00 0.03 100 1006.2
20191020061531 76 181 1.0 2.0 0.03 1.00 0.03 100 1006.2
20191020061021 76 181 0.0 2.0 0.03 1.00 0.03 100 1006.2
20191020060530 76 181 1.0 3.0 0.03 1.00 0.03 100 1006.3
20191020060021 76 178 1.0 3.0 0.03 1.00 0.03 100 1006.3
20191020055509 77 208 1.0 4.0 0.02 0.99 0.02 100 1006.3
20191020055018 77 168 2.0 5.0 0.02 0.99 0.02 99 1006.4
20191020054603 77 170 1.0 4.0 0.02 0.98 0.02 100 1006.5
20191020054005 77 195 2.0 4.0 0.02 0.98 0.02 100 1006.5
20191020053505 77 173 2.0 4.0 0.02 0.98 0.02 99 1006.6
20191020053026 77 165 0.0 4.0 0.02 0.98 0.02 99 1006.5
20191020052511 77 221 1.0 6.0 0.02 0.98 0.02 99 1006.5
20191020052026 77 215 2.0 8.0 0.02 0.98 0.01 100 1006.5
20191020051546 76 180 4.0 8.0 0.01 0.97 0.00 100 1006.4
20191020051013 76 226 4.0 7.0 0.01 0.97 0.00 100 1006.4
20191020050507 76 234 3.0 7.0 0.02 0.97 0.00 100 1006.4
20191020050126 77 215 3.0 6.0 0.04 0.97 0.00 100 1006.3
20191020045515 77 117 0.0 1.0 0.12 0.97 0.97 100 1006.3
20191020045009 77 114 0.0 1.0 0.19 0.96 0.96 100 1006.4
20191020044508 77 114 0.0 1.0 0.28 0.96 0.96 100 1006.3
20191020044017 77 114 0.0 1.0 0.39 0.96 0.96 100 1006.4
20191020043510 77 114 0.0 1.0 0.50 0.96 0.96 100 1006.4
20191020043105 77 114 0.0 1.0 0.56 0.96 0.96 100 1006.4
20191020042523 77 114 0.0 2.0 0.64 0.96 0.96 100 1006.4
20191020042007 76 114 1.0 2.0 0.65 0.96 0.96 100 1006.4
20191020041512 76 119 0.0 2.0 0.65 0.96 0.96 100 1006.4
20191020041012 76 119 0.0 7.0 0.66 0.96 0.96 100 1006.3
20191020040517 76 131 2.0 7.0 0.65 0.95 0.95 100 1006.3
20191020040036 76 161 4.0 7.0 0.62 0.92 0.92 100 1006.2
20191020035528 77 163 1.0 4.0 0.55 0.86 0.85 100 1006.3
20191020035011 77 157 1.0 4.0 0.46 0.77 0.76 100 1006.2
20191020034517 77 167 1.0 4.0 0.36 0.67 0.66 100 1006.3
20191020034020 77 115 1.0 4.0 0.27 0.56 0.56 99 1006.3
20191020033517 77 67 2.0 4.0 0.16 0.46 0.46 98 1006.3
20191020033112 78 57 2.0 4.0 0.09 0.39 0.39 97 1006.3
20191020032528 78 59 1.0 2.0 0.02 0.33 0.32 97 1006.2
20191020032013 78 155 0.0 2.0 0.01 0.31 0.31 96 1006.1
20191020031519 78 155 1.0 2.0 0.01 0.31 0.31 96 1006.0
20191020031019 78 155 0.0 1.0 0.00 0.31 0.30 96 1006.0
20191020030522 78 155 0.0 2.0 0.00 0.31 0.30 95 1005.9
20191020030039 78 155 0.0 4.0 0.00 0.31 0.30 95 1005.9
20191020025533 78 155 2.0 5.0 0.00 0.31 0.30 94 1005.8
20191020025007 78 153 3.0 5.0 0.00 0.31 0.30 94 1005.7
20191020024520 78 175 2.0 5.0 0.00 0.31 0.30 94 1005.7
20191020024026 78 187 2.0 6.0 0.00 0.31 0.30 94 1005.6
20191020023521 78 175 3.0 6.0 0.00 0.31 0.30 95 1005.6
20191020023030 78 197 3.0 6.0 0.00 0.31 0.30 95 1005.7
20191020022521 78 179 2.0 7.0 0.00 0.31 0.30 95 1005.6
20191020022027 78 190 4.0 9.0 0.00 0.31 0.30 95 1005.5
20191020021540 78 181 5.0 9.0 0.00 0.31 0.30 96 1005.5
20191020021002 77 179 4.0 10.0 0.00 0.31 0.30 96 1005.4
20191020020600 77 217 4.0 10.0 0.00 0.31 0.30 97 1005.4
20191020020026 77 221 5.0 9.0 0.00 0.31 0.30 97 1005.3
20191020015523 77 205 4.0 12.0 0.00 0.31 0.30 97 1005.3
20191020015006 77 183 6.0 11.0 0.00 0.31 0.30 98 1005.2
20191020014526 77 236 7.0 11.0 0.00 0.31 0.30 98 1005.2
20191020014016 77 189 6.0 14.0 0.00 0.31 0.30 98 1005.3
20191020013526 77 179 8.0 14.0 0.00 0.31 0.30 98 1005.2
20191020013030 77 205 7.0 14.0 0.01 0.31 0.30 98 1005.0
20191020012520 78 202 8.0 15.0 0.01 0.31 0.30 99 1005.1
20191020012012 78 209 10.0 18.0 0.01 0.31 0.30 98 1005.0
20191020011512 78 218 9.0 17.0 0.01 0.31 0.30 98 1004.9
20191020011017 78 171 10.0 17.0 0.01 0.31 0.30 98 1004.9